Racecast

Austin Lota

Virginia Beach Flames (VA) · - · Compare head to head

Athlete rating 114.0 2026 TF season
Best race 120.1 TF
Races 26
Seasons 1 2026
Rating scale ?
Speed rating — all races

Track & Field

TF speed rating

2026 TF 107.6

Virginia Beach Flames (VA) · Grade -

Date Meet Event Result Place Rating Difficulty PR/SR Flags
2026-06-13 AAU Virginia District Qualifier - South javelin 25' 11" -0.033
2026-06-13 AAU Virginia District Qualifier - South 800m 2:54.11 1st · 1st on team 120.1 -0.033 ★PR ★R SR RSR
2026-06-13 AAU Virginia District Qualifier - South 1500m 5:49.08 1st · 1st on team 119.8 -0.033 ★PR SR
2026-05-30 Va Beach Flames Invite javelin 27' 3" -0.023
2026-05-30 Va Beach Flames Invite 800m 3:07.09 2nd · 1st on team 112.9 -0.023 PR SR
2026-05-30 Va Beach Flames Invite 1500m 5:56.15 1st · 1st on team 118.6 -0.023 R RSR
2026-05-24 HR Hurricanes CAT 5 Invite javelin 21' 2" -0.035
2026-05-24 HR Hurricanes CAT 5 Invite 1500m 6:06.03 3rd · 2nd on team 114.0 -0.035
2026-05-09 VA "Legends" T & F Youth Invite javelin 7.11m -0.033
2026-05-09 VA "Legends" T & F Youth Invite 1500m 5:55.54 3rd · 1st on team 117.6 -0.033 PR R SR RSR
2026-05-02 The DMV Track and Field Classic 1500m 6:25.94 1st · 1st on team 109.7 -0.021
2026-05-02 The DMV Track and Field Classic 800m 3:18.49 1st · 1st on team 106.6 -0.021
2026-04-26 Virginia Pride Spring Kick-Off 800m 3:16.66 11th · 1st on team 106.7 -0.029
2026-04-26 Virginia Pride Spring Kick-Off 400m 1:25.82 20th · 2nd on team -0.029 ★PR SR
2026-03-06 AAU Indoor National Championship 800m 3:11.23 25th · 1st on team 109.4 -0.036 PR SR
2026-03-06 AAU Indoor National Championship 1500m 6:07.91 8th · 1st on team 113.6 -0.036 PR R SR RSR
2026-02-28 BWSP Queens and Kings Championships 800m 3:22.76 3rd · 2nd on team 104.0 -0.024 PR SR
2026-02-28 BWSP Queens and Kings Championships 1500m 6:23.52 3rd · 1st on team 110.0 -0.024
2026-02-22 3rd Annual HRH Winter Storm Classic 1500m 6:13.96 1st · 1st on team 112.8 -0.024 PR R SR RSR
2026-02-22 3rd Annual HRH Winter Storm Classic 800m 3:24.87 4th · 3rd on team 102.9 -0.024 PR SR
2026-01-31 BWSP Queens and Kings - Meet 3 800m 3:29.44 3rd · 3rd on team 100.7 -0.024 PR R SR RSR
2026-01-31 BWSP Queens and Kings - Meet 3 1500m 6:37.11 3rd · 3rd on team 106.2 -0.024 PR R SR RSR
2026-01-25 Virginia Beach Flames Invitational 1500m 6:58.97 5th · 4th on team 99.8 -0.036 PR R SR RSR
2026-01-25 Virginia Beach Flames Invitational 800m 3:30.87 6th · 5th on team 99.2 -0.036 PR SR
2026-01-03 BWSP Queens and Kings - Meet 1 1500m 7:38.91 2nd · 2nd on team 91.9 -0.024 PR R SR RSR
2026-01-03 BWSP Queens and Kings - Meet 1 800m 4:12.75 2nd · 2nd on team 83.4 -0.024 PR SR